Time,TemperatureF,DewpointF,PressureIn,WindDirection,WindDirectionDegrees,WindSpeedMPH,WindSpeedGustMPH,Humidity,HourlyPrecipIn,Conditions,Clouds,dailyrainin,SoftwareType,DateUTC
2013-02-10 00:01:00,12.0,11.0,-100.00,NNW,342,4.0,9.0,93,-99.99,,,-99.99,,2013-02-10 07:01:00,
2013-02-10 00:11:00,12.0,10.0,-100.00,NW,322,8.0,12.0,92,-99.99,,,-99.99,,2013-02-10 07:11:00,
2013-02-10 00:21:00,12.0,10.0,-100.00,NW,322,8.0,12.0,92,-99.99,,,-99.99,,2013-02-10 07:21:00,
2013-02-10 00:31:00,12.0,10.0,-100.00,NW,322,8.0,12.0,92,-99.99,,,-99.99,,2013-02-10 07:31:00,
2013-02-10 00:41:00,12.0,10.0,-100.00,NNW,343,4.0,7.0,89,-99.99,,,-99.99,,2013-02-10 07:41:00,
2013-02-10 00:52:00,12.0,10.0,-100.00,NNW,343,4.0,7.0,89,-99.99,,,-99.99,,2013-02-10 07:52:00,
2013-02-10 01:01:00,12.0,10.0,-100.00,North,358,4.0,7.0,88,-99.99,,,-99.99,,2013-02-10 08:01:00,
2013-02-10 01:11:00,12.0,10.0,-100.00,North,5,3.0,5.0,90,-99.99,,,-99.99,,2013-02-10 08:11:00,
2013-02-10 01:21:00,12.0,10.0,-100.00,North,5,3.0,5.0,90,-99.99,,,-99.99,,2013-02-10 08:21:00,
2013-02-10 01:31:00,12.0,10.0,-100.00,North,5,3.0,5.0,90,-99.99,,,-99.99,,2013-02-10 08:31:00,
2013-02-10 01:43:00,12.0,10.0,-100.00,North,351,2.0,5.0,88,-99.99,,,-99.99,,2013-02-10 08:43:00,
2013-02-10 01:52:00,12.0,10.0,-100.00,North,351,2.0,5.0,88,-99.99,,,-99.99,,2013-02-10 08:52:00,
2013-02-10 02:02:00,12.0,10.0,-100.00,NNW,338,3.0,7.0,91,-99.99,,,-99.99,,2013-02-10 09:02:00,
2013-02-10 02:11:00,13.0,10.0,-100.00,NNW,330,5.0,11.0,90,-99.99,,,-99.99,,2013-02-10 09:11:00,
2013-02-10 02:21:00,13.0,10.0,-100.00,NNW,330,5.0,11.0,90,-99.99,,,-99.99,,2013-02-10 09:21:00,
2013-02-10 02:31:00,13.0,10.0,-100.00,NNW,330,5.0,11.0,90,-99.99,,,-99.99,,2013-02-10 09:31:00,
2013-02-10 02:41:00,13.0,9.0,-100.00,NW,319,5.0,9.0,86,-99.99,,,-99.99,,2013-02-10 09:41:00,
2013-02-10 02:52:00,13.0,9.0,-100.00,NW,319,5.0,9.0,86,-99.99,,,-99.99,,2013-02-10 09:52:00,
2013-02-10 03:01:00,12.0,9.0,-100.00,NNW,345,2.0,5.0,89,-99.99,,,-99.99,,2013-02-10 10:01:00,
2013-02-10 03:11:00,11.0,10.0,-100.00,NNW,338,0.0,0.0,93,-99.99,,,-99.99,,2013-02-10 10:11:00,
2013-02-10 03:21:00,11.0,10.0,-100.00,NNW,338,0.0,0.0,93,-99.99,,,-99.99,,2013-02-10 10:21:00,
2013-02-10 03:31:00,11.0,10.0,-100.00,NNW,338,0.0,0.0,93,-99.99,,,-99.99,,2013-02-10 10:31:00,
2013-02-10 03:41:00,12.0,10.0,-100.00,SSE,163,2.0,4.0,92,-99.99,,,-99.99,,2013-02-10 10:41:00,
2013-02-10 03:52:00,12.0,10.0,-100.00,SSE,163,2.0,4.0,92,-99.99,,,-99.99,,2013-02-10 10:52:00,
2013-02-10 04:01:00,12.0,10.0,-100.00,SSE,161,2.0,3.0,92,-99.99,,,-99.99,,2013-02-10 11:01:00,
2013-02-10 04:11:00,12.0,10.0,-100.00,SSE,150,0.0,2.0,91,-99.99,,,-99.99,,2013-02-10 11:11:00,
2013-02-10 04:21:00,12.0,10.0,-100.00,SSE,150,0.0,2.0,91,-99.99,,,-99.99,,2013-02-10 11:21:00,
2013-02-10 04:31:00,12.0,10.0,-100.00,SSE,150,0.0,2.0,91,-99.99,,,-99.99,,2013-02-10 11:31:00,
2013-02-10 04:42:00,12.0,10.0,-100.00,SSE,150,0.0,2.0,91,-99.99,,,-99.99,,2013-02-10 11:42:00,
2013-02-10 04:52:00,12.0,10.0,-100.00,SSE,150,0.0,2.0,91,-99.99,,,-99.99,,2013-02-10 11:52:00,
2013-02-10 05:01:00,12.0,10.0,-100.00,North,0,0.0,0.0,91,-99.99,,,-99.99,,2013-02-10 12:01:00,
2013-02-10 05:12:00,12.0,10.0,-100.00,SSE,160,0.0,1.0,91,-99.99,,,-99.99,,2013-02-10 12:12:00,
2013-02-10 05:21:00,12.0,10.0,-100.00,SSE,160,0.0,1.0,91,-99.99,,,-99.99,,2013-02-10 12:21:00,
2013-02-10 05:32:00,12.0,10.0,-100.00,SSE,160,0.0,1.0,91,-99.99,,,-99.99,,2013-02-10 12:32:00,
2013-02-10 05:41:00,11.0,9.0,-100.00,SSE,168,0.0,2.0,91,-99.99,,,-99.99,,2013-02-10 12:41:00,
2013-02-10 05:52:00,11.0,9.0,-100.00,SSE,168,0.0,2.0,91,-99.99,,,-99.99,,2013-02-10 12:52:00,
2013-02-10 06:02:00,11.0,9.0,-100.00,ESE,122,0.0,1.0,91,-99.99,,,-99.99,,2013-02-10 13:02:00,
2013-02-10 06:11:00,11.0,9.0,-100.00,North,0,0.0,0.0,92,-99.99,,,-99.99,,2013-02-10 13:11:00,
2013-02-10 06:21:00,11.0,9.0,-100.00,North,0,0.0,0.0,92,-99.99,,,-99.99,,2013-02-10 13:21:00,
2013-02-10 06:31:00,11.0,9.0,-100.00,North,0,0.0,0.0,92,-99.99,,,-99.99,,2013-02-10 13:31:00,
2013-02-10 06:41:00,11.0,9.0,-100.00,ESE,123,0.0,0.0,91,-99.99,,,-99.99,,2013-02-10 13:41:00,
2013-02-10 06:52:00,11.0,9.0,-100.00,ESE,123,0.0,0.0,91,-99.99,,,-99.99,,2013-02-10 13:52:00,
2013-02-10 07:02:00,11.0,9.0,-100.00,North,0,0.0,0.0,92,-99.99,,,-99.99,,2013-02-10 14:02:00,
2013-02-10 07:11:00,11.0,9.0,-100.00,NNE,26,1.0,4.0,90,-99.99,,,-99.99,,2013-02-10 14:11:00,
2013-02-10 07:21:00,11.0,9.0,-100.00,NNE,26,1.0,4.0,90,-99.99,,,-99.99,,2013-02-10 14:21:00,
2013-02-10 07:31:00,11.0,9.0,-100.00,NNE,26,1.0,4.0,90,-99.99,,,-99.99,,2013-02-10 14:31:00,
2013-02-10 07:41:00,10.0,8.0,-100.00,NNW,346,2.0,5.0,90,-99.99,,,-99.99,,2013-02-10 14:41:00,
2013-02-10 07:52:00,10.0,8.0,-100.00,NNW,346,2.0,5.0,90,-99.99,,,-99.99,,2013-02-10 14:52:00,
2013-02-10 08:01:00,10.0,8.0,-100.00,North,1,3.0,4.0,91,-99.99,,,-99.99,,2013-02-10 15:01:00,
2013-02-10 08:11:00,10.0,9.0,-100.00,NNW,347,2.0,4.0,91,-99.99,,,-99.99,,2013-02-10 15:11:00,
2013-02-10 08:21:00,10.0,9.0,-100.00,NNW,347,2.0,4.0,91,-99.99,,,-99.99,,2013-02-10 15:21:00,
2013-02-10 08:31:00,10.0,9.0,-100.00,NNW,347,2.0,4.0,91,-99.99,,,-99.99,,2013-02-10 15:31:00,
2013-02-10 08:41:00,11.0,8.0,-100.00,NNW,332,2.0,5.0,89,-99.99,,,-99.99,,2013-02-10 15:41:00,
2013-02-10 08:52:00,11.0,8.0,-100.00,NNW,332,2.0,5.0,89,-99.99,,,-99.99,,2013-02-10 15:52:00,
2013-02-10 09:01:00,12.0,9.0,-100.00,NNW,336,4.0,7.0,90,-99.99,,,-99.99,,2013-02-10 16:01:00,
2013-02-10 09:11:00,12.0,10.0,-100.00,NNW,344,3.0,6.0,89,-99.99,,,-99.99,,2013-02-10 16:11:00,
2013-02-10 09:21:00,12.0,10.0,-100.00,NNW,344,3.0,6.0,89,-99.99,,,-99.99,,2013-02-10 16:21:00,
2013-02-10 09:31:00,12.0,10.0,-100.00,NNW,344,3.0,6.0,89,-99.99,,,-99.99,,2013-02-10 16:31:00,
2013-02-10 09:42:00,13.0,10.0,-100.00,NNE,14,3.0,5.0,88,-99.99,,,-99.99,,2013-02-10 16:42:00,
2013-02-10 09:52:00,13.0,10.0,-100.00,NNE,14,3.0,5.0,88,-99.99,,,-99.99,,2013-02-10 16:52:00,
2013-02-10 10:01:00,13.0,11.0,-100.00,North,1,3.0,4.0,89,-99.99,,,-99.99,,2013-02-10 17:01:00,
2013-02-10 10:11:00,13.0,11.0,-100.00,NNW,347,3.0,4.0,89,-99.99,,,-99.99,,2013-02-10 17:11:00,
2013-02-10 10:21:00,13.0,11.0,-100.00,NNW,347,3.0,4.0,89,-99.99,,,-99.99,,2013-02-10 17:21:00,
2013-02-10 10:31:00,13.0,11.0,-100.00,NNW,347,3.0,4.0,89,-99.99,,,-99.99,,2013-02-10 17:31:00,
2013-02-10 10:42:00,14.0,11.0,-100.00,North,351,5.0,8.0,89,-99.99,,,-99.99,,2013-02-10 17:42:00,
2013-02-10 10:52:00,14.0,11.0,-100.00,North,351,5.0,8.0,89,-99.99,,,-99.99,,2013-02-10 17:52:00,
2013-02-10 11:01:00,14.0,11.0,-100.00,North,357,5.0,8.0,89,-99.99,,,-99.99,,2013-02-10 18:01:00,
2013-02-10 11:11:00,15.0,12.0,-100.00,North,357,4.0,7.0,88,-99.99,,,-99.99,,2013-02-10 18:11:00,
2013-02-10 11:21:00,15.0,12.0,-100.00,North,357,4.0,7.0,88,-99.99,,,-99.99,,2013-02-10 18:21:00,
2013-02-10 11:31:00,15.0,12.0,-100.00,North,357,4.0,7.0,88,-99.99,,,-99.99,,2013-02-10 18:31:00,
2013-02-10 11:41:00,15.0,13.0,-100.00,North,8,3.0,6.0,90,-99.99,,,-99.99,,2013-02-10 18:41:00,
2013-02-10 11:52:00,15.0,13.0,-100.00,North,8,3.0,6.0,90,-99.99,,,-99.99,,2013-02-10 18:52:00,
2013-02-10 12:01:00,16.0,13.0,-100.00,North,351,3.0,5.0,87,-99.99,,,-99.99,,2013-02-10 19:01:00,
2013-02-10 12:11:00,17.0,13.0,-100.00,NNW,346,2.0,4.0,85,-99.99,,,-99.99,,2013-02-10 19:11:00,
2013-02-10 12:21:00,17.0,13.0,-100.00,NNW,346,2.0,4.0,85,-99.99,,,-99.99,,2013-02-10 19:21:00,
2013-02-10 12:31:00,17.0,13.0,-100.00,NNW,346,2.0,4.0,85,-99.99,,,-99.99,,2013-02-10 19:31:00,
2013-02-10 12:42:00,16.0,13.0,-100.00,North,7,4.0,8.0,86,-99.99,,,-99.99,,2013-02-10 19:42:00,
2013-02-10 12:52:00,16.0,13.0,-100.00,North,7,4.0,8.0,86,-99.99,,,-99.99,,2013-02-10 19:52:00,
2013-02-10 13:01:00,16.0,14.0,-100.00,North,356,4.0,7.0,87,-99.99,,,-99.99,,2013-02-10 20:01:00,
2013-02-10 13:11:00,17.0,14.0,-100.00,North,358,3.0,5.0,87,-99.99,,,-99.99,,2013-02-10 20:11:00,
2013-02-10 13:21:00,17.0,14.0,-100.00,North,358,3.0,5.0,87,-99.99,,,-99.99,,2013-02-10 20:21:00,
2013-02-10 13:31:00,17.0,14.0,-100.00,North,358,3.0,5.0,87,-99.99,,,-99.99,,2013-02-10 20:31:00,
2013-02-10 13:42:00,18.0,14.0,-100.00,North,359,4.0,6.0,84,-99.99,,,-99.99,,2013-02-10 20:42:00,
2013-02-10 13:52:00,18.0,14.0,-100.00,North,359,4.0,6.0,84,-99.99,,,-99.99,,2013-02-10 20:52:00,
2013-02-10 14:02:00,19.0,14.0,-100.00,North,352,3.0,7.0,80,-99.99,,,-99.99,,2013-02-10 21:02:00,
2013-02-10 14:11:00,19.0,14.0,-100.00,North,350,4.0,6.0,79,-99.99,,,-99.99,,2013-02-10 21:11:00,
2013-02-10 14:21:00,19.0,14.0,-100.00,North,350,4.0,6.0,79,-99.99,,,-99.99,,2013-02-10 21:21:00,
2013-02-10 14:31:00,19.0,14.0,-100.00,North,350,4.0,6.0,79,-99.99,,,-99.99,,2013-02-10 21:31:00,
2013-02-10 14:42:00,20.0,13.0,-100.00,North,352,3.0,5.0,72,-99.99,,,-99.99,,2013-02-10 21:42:00,
2013-02-10 14:52:00,20.0,13.0,-100.00,North,352,3.0,5.0,72,-99.99,,,-99.99,,2013-02-10 21:52:00,
2013-02-10 15:01:00,20.0,13.0,-100.00,North,358,4.0,9.0,71,-99.99,,,-99.99,,2013-02-10 22:01:00,
2013-02-10 15:11:00,19.0,12.0,-100.00,North,3,5.0,10.0,74,-99.99,,,-99.99,,2013-02-10 22:11:00,
2013-02-10 15:21:00,19.0,12.0,-100.00,North,3,5.0,10.0,74,-99.99,,,-99.99,,2013-02-10 22:21:00,
2013-02-10 15:31:00,19.0,12.0,-100.00,North,3,5.0,10.0,74,-99.99,,,-99.99,,2013-02-10 22:31:00,
2013-02-10 15:42:00,16.0,12.0,-100.00,North,359,5.0,9.0,83,-99.99,,,-99.99,,2013-02-10 22:42:00,
2013-02-10 15:52:00,16.0,12.0,-100.00,North,359,5.0,9.0,83,-99.99,,,-99.99,,2013-02-10 22:52:00,
2013-02-10 16:02:00,16.0,12.0,-100.00,North,8,5.0,9.0,84,-99.99,,,-99.99,,2013-02-10 23:02:00,
2013-02-10 16:11:00,16.0,13.0,-100.00,North,3,3.0,6.0,87,-99.99,,,-99.99,,2013-02-10 23:11:00,
2013-02-10 16:21:00,16.0,13.0,-100.00,North,3,3.0,6.0,87,-99.99,,,-99.99,,2013-02-10 23:21:00,
2013-02-10 16:31:00,16.0,13.0,-100.00,North,3,3.0,6.0,87,-99.99,,,-99.99,,2013-02-10 23:31:00,
2013-02-10 16:41:00,15.0,13.0,-100.00,NNW,334,2.0,3.0,91,-99.99,,,-99.99,,2013-02-10 23:41:00,
2013-02-10 16:52:00,15.0,13.0,-100.00,NNW,334,2.0,3.0,91,-99.99,,,-99.99,,2013-02-10 23:52:00,
2013-02-10 17:01:00,15.0,12.0,-100.00,NW,324,1.0,3.0,88,-99.99,,,-99.99,,2013-02-11 00:01:00,
2013-02-10 17:11:00,15.0,12.0,-100.00,North,356,2.0,3.0,88,-99.99,,,-99.99,,2013-02-11 00:11:00,
2013-02-10 17:21:00,15.0,12.0,-100.00,North,356,2.0,3.0,88,-99.99,,,-99.99,,2013-02-11 00:21:00,
2013-02-10 17:31:00,15.0,12.0,-100.00,North,356,2.0,3.0,88,-99.99,,,-99.99,,2013-02-11 00:31:00,
2013-02-10 17:41:00,15.0,12.0,-100.00,NW,311,1.0,3.0,87,-99.99,,,-99.99,,2013-02-11 00:41:00,
2013-02-10 17:52:00,15.0,12.0,-100.00,NW,311,1.0,3.0,87,-99.99,,,-99.99,,2013-02-11 00:52:00,
2013-02-10 18:01:00,14.0,11.0,-100.00,NW,326,2.0,4.0,88,-99.99,,,-99.99,,2013-02-11 01:01:00,
2013-02-10 18:11:00,14.0,11.0,-100.00,NNW,328,3.0,5.0,89,-99.99,,,-99.99,,2013-02-11 01:11:00,
2013-02-10 18:21:00,14.0,11.0,-100.00,NNW,328,3.0,5.0,89,-99.99,,,-99.99,,2013-02-11 01:21:00,
2013-02-10 18:31:00,14.0,11.0,-100.00,NNW,328,3.0,5.0,89,-99.99,,,-99.99,,2013-02-11 01:31:00,
2013-02-10 18:41:00,13.0,11.0,-100.00,North,3,4.0,5.0,92,-99.99,,,-99.99,,2013-02-11 01:41:00,
2013-02-10 18:52:00,13.0,11.0,-100.00,North,3,4.0,5.0,92,-99.99,,,-99.99,,2013-02-11 01:52:00,
2013-02-10 19:01:00,12.0,11.0,-100.00,NNW,343,4.0,6.0,93,-99.99,,,-99.99,,2013-02-11 02:01:00,
2013-02-10 19:11:00,12.0,10.0,-100.00,NNW,332,5.0,9.0,90,-99.99,,,-99.99,,2013-02-11 02:11:00,
2013-02-10 19:21:00,12.0,10.0,-100.00,NNW,332,5.0,9.0,90,-99.99,,,-99.99,,2013-02-11 02:21:00,
2013-02-10 19:31:00,12.0,10.0,-100.00,NNW,332,5.0,9.0,90,-99.99,,,-99.99,,2013-02-11 02:31:00,
2013-02-10 19:41:00,12.0,9.0,-100.00,NNW,329,5.0,10.0,88,-99.99,,,-99.99,,2013-02-11 02:41:00,
2013-02-10 19:52:00,12.0,9.0,-100.00,North,349,3.0,5.0,89,-99.99,,,-99.99,,2013-02-11 02:52:00,
2013-02-10 20:01:00,12.0,9.0,-100.00,North,349,3.0,5.0,89,-99.99,,,-99.99,,2013-02-11 03:01:00,
2013-02-10 20:11:00,11.0,9.0,-100.00,NNW,347,3.0,6.0,91,-99.99,,,-99.99,,2013-02-11 03:11:00,
2013-02-10 20:21:00,11.0,9.0,-100.00,NNW,347,3.0,6.0,91,-99.99,,,-99.99,,2013-02-11 03:21:00,
2013-02-10 20:31:00,11.0,9.0,-100.00,NNW,347,3.0,6.0,91,-99.99,,,-99.99,,2013-02-11 03:31:00,
2013-02-10 20:41:00,11.0,10.0,-100.00,NNW,341,3.0,4.0,94,-99.99,,,-99.99,,2013-02-11 03:41:00,
2013-02-10 20:52:00,11.0,10.0,-100.00,WNW,301,2.0,3.0,93,-99.99,,,-99.99,,2013-02-11 03:52:00,
2013-02-10 21:01:00,11.0,10.0,-100.00,WNW,301,2.0,3.0,93,-99.99,,,-99.99,,2013-02-11 04:01:00,
2013-02-10 21:11:00,11.0,9.0,-100.00,North,354,2.0,4.0,92,-99.99,,,-99.99,,2013-02-11 04:11:00,
2013-02-10 21:21:00,11.0,9.0,-100.00,North,354,2.0,4.0,92,-99.99,,,-99.99,,2013-02-11 04:21:00,
2013-02-10 21:31:00,11.0,9.0,-100.00,North,354,2.0,4.0,92,-99.99,,,-99.99,,2013-02-11 04:31:00,
2013-02-10 21:41:00,11.0,10.0,-100.00,NNW,348,2.0,3.0,94,-99.99,,,-99.99,,2013-02-11 04:41:00,
2013-02-10 21:52:00,11.0,9.0,-100.00,NW,310,2.0,3.0,94,-99.99,,,-99.99,,2013-02-11 04:52:00,
2013-02-10 22:01:00,11.0,9.0,-100.00,NW,310,2.0,3.0,94,-99.99,,,-99.99,,2013-02-11 05:01:00,
2013-02-10 22:11:00,11.0,10.0,-100.00,NNW,332,2.0,4.0,93,-99.99,,,-99.99,,2013-02-11 05:11:00,
2013-02-10 22:22:00,11.0,10.0,-100.00,NNW,332,2.0,4.0,93,-99.99,,,-99.99,,2013-02-11 05:22:00,
2013-02-10 22:31:00,11.0,10.0,-100.00,NNW,332,2.0,4.0,93,-99.99,,,-99.99,,2013-02-11 05:31:00,
2013-02-10 22:41:00,11.0,10.0,-100.00,North,352,2.0,4.0,93,-99.99,,,-99.99,,2013-02-11 05:41:00,
2013-02-10 22:52:00,11.0,10.0,-100.00,North,352,2.0,4.0,93,-99.99,,,-99.99,,2013-02-11 05:52:00,
2013-02-10 23:01:00,11.0,10.0,-100.00,North,359,1.0,2.0,93,-99.99,,,-99.99,,2013-02-11 06:01:00,
2013-02-10 23:11:00,11.0,9.0,-100.00,North,351,1.0,3.0,92,-99.99,,,-99.99,,2013-02-11 06:11:00,
2013-02-10 23:21:00,11.0,9.0,-100.00,North,351,1.0,3.0,92,-99.99,,,-99.99,,2013-02-11 06:21:00,
2013-02-10 23:31:00,11.0,9.0,-100.00,North,351,1.0,3.0,92,-99.99,,,-99.99,,2013-02-11 06:31:00,
2013-02-10 23:42:00,10.0,9.0,-100.00,North,349,3.0,5.0,93,-99.99,,,-99.99,,2013-02-11 06:42:00,
2013-02-10 23:52:00,10.0,9.0,-100.00,North,349,3.0,5.0,93,-99.99,,,-99.99,,2013-02-11 06:52:00,